This demonstration page uses our WeatherBlox Daily Observations layout. Learn more.

Left ArrowRight Arrow

47.50024, -111.30081

Hourly Observations for April 29, 2022

Temp ( °F °C ) Dew Point ( °F °C ) Humidity (%) Winds ( mph kmh ) Pressure ( in mb ) Visibility ( mi km ) Precip ( " mm )
12:53 am 00:53 Cloudy with Light Rain 40 4.4 35 1.7 83 83 NE 16 26 29.84 1011 8 13 0.02 0.51
1:38 am 01:38 Cloudy with Light Rain 39 3.9 35 1.7 86 86 NE 13 20 29.87 1012 10 16 0.03 0.76
1:53 am 01:53 Cloudy with Light Rain 39 3.9 35 1.7 86 86 NNE 9 15 29.85 1011 8 13 0.03 0.76
2:53 am 02:53 Cloudy with Rain 37 2.8 35 1.7 93 93 N 12 19 29.85 1011 6 10 0.11 2.79
3:38 am 03:38 Cloudy with Rain 34 1.1 32 0 92 92 N 7 11 29.93 1014 5 8 0.10 2.54
3:53 am 03:53 Cloudy with Light Snow 33 0.6 32 0 96 96 N 8 13 29.89 1012 2 3 0.13 3.30
4:02 am 04:02 Cloudy with Light Snow 33 0.6 31 -0.6 92 92 N 6 9 29.96 1015 1 2 0.02 0.51
4:16 am 04:16 Cloudy with Light Snow 32 0 31 -0.6 96 96 N 3 6 29.98 1015 1 1 0.06 1.52
4:42 am 04:42 Mostly Cloudy with Snow 32 0 31 -0.6 96 96 NNW 3 6 29.99 1016 1 1 0.14 3.56
4:53 am 04:53 Mostly Cloudy with Snow 32 0 31 -0.6 96 96 NW 6 9 29.92 1013 1 1 0.18 4.57
5:07 am 05:07 Mostly Cloudy with Light Snow 32 0 31 -0.6 96 96 NW 7 11 30.00 1016 1 1 0.02 0.51
5:17 am 05:17 Cloudy with Light Snow 32 0 31 -0.6 96 96 NW 7 11 30.00 1016 0 0 0.05 1.27
5:53 am 05:53 Cloudy with Light Snow 32 0 31 -0.6 96 96 NNW 13 20 29.94 1014 0 0 0.10 2.54
6:24 am 06:24 Cloudy with Light Snow 32 0 31 -0.6 96 96 NNW 14 22 30.02 1017 1 1 0.06 1.52
6:39 am 06:39 Cloudy with Light Snow 32 0 31 -0.6 96 96 NNW 15 24 30.03 1017 1 2 0.08 2.03
6:53 am 06:53 Cloudy with Snow 32 0 31 -0.6 96 96 NW 14 22 29.98 1015 1 1 0.10 2.54
7:51 am 07:51 Cloudy with Light Snow 32 0 30 -1 93 93 NW 15 24 30.08 1019 1 2 0.11 2.79
7:53 am 07:53 Cloudy with Light Snow 32 0 31 -0.6 96 96 NW 15 24 30.03 1017 1 2 0.12 3.05
7:58 am 07:58 Cloudy with Light Snow 32 0 31 -0.6 96 96 NW 15 24 30.08 1019 2 3 0.00 0.00
8:02 am 08:02 Cloudy with Light Snow 32 0 31 -0.6 96 96 NW 16 26 30.08 1019 3 4 0.01 0.25
8:16 am 08:16 Cloudy with Light Rain 33 0.6 32 0 96 96 NW 16 26 30.08 1019 3 5 0.02 0.51
8:53 am 08:53 Cloudy with Light Rain 34 1.1 32 0 92 92 NW 13 20 30.06 1018 3 5 0.05 1.27
9:53 am 09:53 Cloudy with Light Rain 35 1.7 32 0 89 89 NW 9 15 30.09 1019 6 10 0.03 0.76
10:53 am 10:53 Cloudy with Light Rain 37 2.8 34 1.1 89 89 WNW 7 11 30.11 1020 8 13 0.04 1.02
11:41 am 11:41 Cloudy 37 2.8 34 1.1 89 89 WSW 8 13 30.13 1020 10 16 0.01 0.25
11:53 am 11:53 Cloudy 37 2.8 34 1.1 89 89 SW 7 11 30.13 1020 10 16 0.01 0.25
12:53 pm 12:53 Cloudy 40 4.4 35 1.7 83 83 SSW 7 11 30.14 1021 10 16 0.00 0.00
1:53 pm 13:53 Mostly Cloudy 44 6.7 37 2.8 76 76 SW 8 13 30.12 1020 10 16 0.00 0.00
2:53 pm 14:53 Mostly Sunny 48 8.9 39 3.9 71 71 SSW 6 9 30.12 1020 10 16 0.00 0.00
3:53 pm 15:53 Partly Cloudy 49 9.4 35 1.7 59 59 SSW 7 11 30.13 1020 10 16 0.00 0.00
4:53 pm 16:53 Mostly Cloudy 48 8.9 35 1.7 61 61 SW 16 26 30.14 1021 10 16 0.00 0.00
5:53 pm 17:53 Mostly Sunny 48 8.9 32 0 54 54 SSE 7 11 30.16 1021 10 16 0.00 0.00
6:53 pm 18:53 Mostly Sunny 47 8.3 32 0 56 56 SSE 9 15 30.17 1022 10 16 0.00 0.00
7:53 pm 19:53 Mostly Cloudy 44 6.7 35 1.7 71 71 SSW 10 17 30.19 1022 10 16 0.00 0.00
8:53 pm 20:53 Mostly Clear 40 4.4 33 0.6 77 77 SSW 9 15 30.21 1023 10 16 0.00 0.00
9:53 pm 21:53 Clear 36 2.2 31 -0.6 82 82 SW 7 11 30.23 1024 10 16 0.00 0.00
10:53 pm 22:53 Clear 36 2.2 31 -0.6 82 82 SW 3 6 30.23 1024 10 16 0.00 0.00
11:53 pm 23:53 Clear 34 1.1 29 -1.7 82 82 S 9 15 30.23 1024 10 16 0.00 0.00

Powered by AerisWeather